Weather History for KOFF - March, 2014

Change the Weather History Date:

Saturday, March 8, 2014

  Actual Average Record
Temperature  
Mean Temperature 29 °F -  
Max Temperature 39 °F 39 °F 66 °F (1997)
Min Temperature 18 °F 22 °F 6 °F (2008)
Degree Days  
Heating Degree Days 36    
Moisture  
Dew Point 19 °F    
Average Humidity 74    
Maximum Humidity 97    
Minimum Humidity 40    
Precipitation  
Precipitation 0.00 in - - ()
Sea Level Pressure  
Sea Level Pressure 30.29 in    
Wind  
Wind Speed 11 mph (North)    
Max Wind Speed 17 mph    
Max Gust Speed 21 mph    
Visibility 10 miles    
Events      
Averages and records for this station are not official NWS values.
T = Trace of Precipitation, MM = Missing Value Source: NWS Daily Summary

Daily Weather History Graph

Daily Weather History Graph

Search for Another Location

Airport or City:

Trip Planner

Search our weather history database for the weather conditions in past years. The results will help you decide how hot, cold, wet, or windy it might be!

Date:

Astronomy

Mar. 08, 2014 Rise Set
Actual Time 6:46 AM CST 6:22 PM CST
Civil Twilight 6:19 AM CST 6:50 PM CST
Nautical Twilight 5:47 AM CST 7:22 PM CST
Astronomical Twilight 5:15 AM CST 7:54 PM CST
Moon 11:25 AM CST (3/8) 1:24 AM CST (3/8)
Length of Visible Light 12h 30m
Length of Day
11h 35m
First Quarter, 52% of the Moon is Illuminated
Mar 8
First Quarter
Mar 16
Full
Mar 23
Last Quarter
Mar 30
New
Apr 7
First Quarter

Hourly Weather History & Observations

Time (CST) Temp. Windchill Dew Point Humidity Pressure Visibility Wind Dir Wind Speed Gust Speed Precip Events Conditions
12:10 AM 26.6 °F 14.3 °F 23.0 °F 86% 30.18 in 10.0 mi North 16.1 mph - N/A   Overcast
12:29 AM 26.6 °F 13.8 °F 21.2 °F 80% 30.19 in 10.0 mi North 17.3 mph - N/A   Overcast
12:44 AM 26.6 °F 16.2 °F 21.2 °F 80% 30.19 in 10.0 mi NNW 11.5 mph - N/A   Mostly Cloudy
12:49 AM 26.6 °F 15.7 °F 21.2 °F 80% 30.19 in 10.0 mi NNW 12.7 mph - N/A   Mostly Cloudy
12:54 AM 26.6 °F 15.7 °F 21.2 °F 80% 30.19 in 10.0 mi NNW 12.7 mph 19.6 mph N/A   Light Freezing Rain
12:55 AM 26.6 °F 15.2 °F 21.2 °F 80% 30.19 in 10.0 mi NNW 13.8 mph 19.6 mph N/A   Mostly Cloudy
12:57 AM 26.6 °F 15.7 °F 21.2 °F 80% 30.19 in 10.0 mi North 12.7 mph 19.6 mph N/A   Mostly Cloudy
12:58 AM 26.6 °F 15.2 °F 21.2 °F 80% 30.24 in 10.0 mi North 13.8 mph 19.6 mph 0.00 in   Mostly Cloudy
1:08 AM 26.6 °F 15.2 °F 21.2 °F 80% 30.19 in 10.0 mi North 13.8 mph 19.6 mph N/A   Mostly Cloudy
1:13 AM 26.6 °F 14.7 °F 21.2 °F 80% 30.19 in 10.0 mi North 15.0 mph 20.7 mph N/A   Mostly Cloudy
1:16 AM 26.6 °F 16.8 °F 21.2 °F 80% 30.19 in 10.0 mi North 10.4 mph 20.7 mph N/A   Mostly Cloudy
1:58 AM 25.5 °F 14.3 °F 19.6 °F 78% 30.25 in 10.0 mi North 12.7 mph - 0.00 in   Partly Cloudy
2:18 AM 24.8 °F 14.6 °F 19.4 °F 80% 30.20 in 10.0 mi NNW 10.4 mph - N/A   Mostly Cloudy
2:58 AM 24.3 °F 12.7 °F 18.7 °F 79% 30.27 in 10.0 mi NNW 12.7 mph - N/A   Overcast
3:58 AM 23.5 °F 12.4 °F 18.3 °F 80% 30.28 in 10.0 mi North 11.5 mph - N/A   Overcast
4:58 AM 22.6 °F 13.4 °F 17.8 °F 82% 30.30 in 10.0 mi North 8.1 mph - N/A   Overcast
5:28 AM 21.2 °F 11.7 °F 17.6 °F 86% 30.26 in 10.0 mi NNW 8.1 mph 19.6 mph N/A   Scattered Clouds
5:58 AM 20.3 °F 9.0 °F 16.9 °F 87% 30.33 in 10.0 mi North 10.4 mph - N/A   Partly Cloudy
6:58 AM 19.4 °F 9.5 °F 16.2 °F 87% 30.36 in 10.0 mi NNW 8.1 mph - N/A   Mostly Cloudy
7:58 AM 19.9 °F 11.1 °F 15.8 °F 84% 30.37 in 10.0 mi North 6.9 mph - N/A   Clear
8:58 AM 23.9 °F 14.2 °F 16.2 °F 72% 30.39 in 10.0 mi North 9.2 mph - N/A   Clear
9:58 AM 26.6 °F 19.1 °F 16.7 °F 66% 30.40 in 10.0 mi North 6.9 mph - N/A   Clear
10:58 AM 30.0 °F 23.2 °F 16.7 °F 58% 30.39 in 10.0 mi North 6.9 mph - N/A   Clear
11:58 AM 33.4 °F 24.8 °F 17.4 °F 52% 30.40 in 10.0 mi North 11.5 mph - N/A   Clear
12:58 PM 34.5 °F 29.4 °F 17.6 °F 50% 30.38 in 10.0 mi Variable 5.8 mph - N/A   Clear
1:58 PM 36.3 °F 30.8 °F 16.5 °F 45% 30.35 in 10.0 mi Variable 6.9 mph - N/A   Clear
2:58 PM 37.8 °F 34.2 °F 17.8 °F 44% 30.34 in 10.0 mi NNE 4.6 mph - N/A   Clear
3:58 PM 39.7 °F - 17.4 °F 41% 30.33 in 10.0 mi Calm Calm - N/A   Clear
4:58 PM 39.6 °F 36.3 °F 16.7 °F 40% 30.34 in 10.0 mi ENE 4.6 mph - N/A   Clear
5:58 PM 36.7 °F 32.9 °F 16.2 °F 43% 30.35 in 10.0 mi NNE 4.6 mph - N/A   Clear
6:58 PM 27.1 °F - 16.3 °F 64% 30.36 in 10.0 mi Calm Calm - N/A   Clear
7:58 PM 21.0 °F - 16.3 °F 82% 30.37 in 10.0 mi Calm Calm - N/A   Clear
8:58 PM 20.7 °F - 17.2 °F 87% 30.35 in 10.0 mi Calm Calm - N/A   Clear
9:58 PM 19.2 °F - 17.4 °F 93% 30.35 in 10.0 mi Calm Calm - N/A   Clear
10:58 PM 20.3 °F - 17.6 °F 89% 30.35 in 10.0 mi Calm Calm - N/A   Clear
11:58 PM 18.1 °F - 17.4 °F 97% 30.32 in 10.0 mi South 2.3 mph - N/A   Clear